Regional Weather Roundup
Issued by NWS Charleston, SC

Current Version | Previous Version | Graphics & Text | Print | Product List | Glossary On
Versions: 1 2 3 4 5 6 7 8 9 10 11 12 13 14 15 16 17 18 19 20 21 22 23 24 25 26 27 28 29 30 31 32 33 34 35 36 37 38 39 40 41 42 43 44 45 46 47 48 49 50
000 ASUS42 KCHS 161927 RWRCHS REGIONAL WEATHER ROUNDUP NATIONAL WEATHER SERVICE CHARLESTON SC 200 PM EST MON JAN 16 2017 NOTE: "FAIR" INDICATES FEW OR NO CLOUDS BELOW 12,000 FEET WITH NO SIGNIFICANT WEATHER AND/OR OBSTRUCTIONS TO VISIBILITY. NOT ALL STATIONS ARE QUALITY CONTROLLED. USE DATA WITH CAUTION... ESPECIALLY DEWPOINT OBSERVATIONS. SCZ027-030-031-034>040-042>050-162000- ...SOUTHEAST SOUTH CAROLINA... CITY SKY/WX TMP DP RH WIND PRES REMARKS N CHARLESTON CLOUDY 62 57 83 CALM 30.32F WATERFRONT PRK N/A 60 58 93 VRB2 30.32F MOUNT PLEASANT CLOUDY 63 59 88 N3 30.31F JOHNS ISLAND CLOUDY 64 59 82 CALM 30.32F PINOPOLIS N/A 55 55 100 VRB2 30.24 MONCKS CORNER CLOUDY 57 57 100 CALM 30.32S SUMMERVILLE CLOUDY 59 59 100 CALM 30.33F BEAUFORT MCAS CLOUDY 66 58 75 E3 30.30F BEAUFORT ARPT MOCLDY 64 59 82 NE8 30.29F HAZE HILTON HEAD IS PTSUNNY 68 61 77 NE6 30.31F WALTERBORO MOCLDY 66 N/A N/A E7 30.31F ALLENDALE FAIR 68 57 68 CALM 30.28F ...SOUTHERN MIDLANDS AND PEE DEE... CITY SKY/WX TMP DP RH WIND PRES REMARKS GEORGETOWN CLOUDY 55 54 94 NE7 30.34F KINGSTREE CLOUDY 54 52 94 CALM 30.34S ORANGEBURG CLOUDY 57 55 93 E3 30.33F FOG BARNWELL FAIR 66 59 77 NE8 30.30F AIKEN CLOUDY 55 54 94 E7 30.34F FOG MANNING CLOUDY 54 52 94 CALM 30.34S COLUMBIA CLOUDY 58 53 84 NE3 30.32F SUMTER CLOUDY 54 51 90 NE7 30.32F FLORENCE CLOUDY 51 51 100 E7 30.35F FOG MYRTLE BEACH CLOUDY 61 52 72 E8 30.36F N MYRTLE BEACH CLOUDY 60 50 69 E6 30.34F $$ GAZ063-065-086>088-099>101-113>116-118-119-134>141-150-162000- ...SOUTHEAST GEORGIA... CITY SKY/WX TMP DP RH WIND PRES REMARKS SAVANNAH ARPT PTSUNNY 75 58 55 E8 30.28F HUNTER AAF MOSUNNY 73 59 62 E9 30.26F FORT STEWART CLOUDY 73 60 63 E3 30.25F STATESBORO PTSUNNY 76 60 57 S3 30.26F HAZE SYLVANIA PTCLDY N/A N/A N/A E3 30.28F CLAXTON FAIR 75 66 75 SE3 30.26F ...CSRA...CENTRAL AND FAR SOUTHEAST GEORGIA... CITY SKY/WX TMP DP RH WIND PRES REMARKS THOMSON MOSUNNY 70 60 70 E3 30.32F AUGUSTA-BUSH PTSUNNY 73 56 54 E8 30.27F AUGUSTA-DANIEL SUNNY 71 54 54 CALM 30.29F SWAINSBORO FAIR 77 50 38 SW9 30.26F VIDALIA MOSUNNY 79 52 38 S7 30.25F EASTMAN MOCLDY 79 33 19 S7 30.26F HAZLEHURST FAIR 79 52 38 SW10 30.23F ALMA MOSUNNY 78 55 44 S8 30.25F WAYCROSS CLOUDY 79 59 49 SE7 30.25F JESUP MOCLDY 75 55 50 S5 30.26F BAXLEY CLOUDY 79 61 53 SW10 30.25F BRUNSWICK PTSUNNY 72 63 73 E10 30.28F SAINT SIMONS PTSUNNY 69 60 73 NE13 30.28F $$ SCZ027-028-034-036>038-045-046-048>050-GAZ119-141-162000- ...LAKE AND SUPPLEMENTAL COASTAL OBSERVATIONS... STATION/POSITION TIME TEMP WIND PRES WAVE SWELL AIR SEA DIR/SP/G HT/PER HT/PER/DIR (UTC) (F) (DEG/KT/KT) (MB) (FT/S) (FT/S/D) WINYAH BAY 1830 53 50/ 8 1028.0F LAKE MURRAY 1820 56 30/ 3/ 4 1026.4 ACE BASIN NERRS 1845 65 20/ 3 1026.0F FORT PULASKI 1900 59 55 90/ 12/ 14 1026.1 SAPELO ISLAND 1830 72 70/ 6 1026.0S $$ ANZ835-935-AMZ111-154-330-350-352-354-370-450-454-472-162000- ...C-MAN AND BUOY OBSERVATIONS... STATION/POSITION TIME TEMP WIND PRES WAVE SWELL AIR SEA DIR/SP/G HT/PER HT/PER/DIR (UTC) (F) (DEG/KT/KT) (MB) (FT/S) (FT/S/D) BUOY 41004 1850 66 71 30/ 17/ 19 1025.1F 4/ 5 2/120/ 9 BUOY 41008 1850 61 61 20/ 8/ 10 1025.3F 2/ 9 2/110/ 9 FOLLY BEACH CMAN 1900 56 50/ 6/ 7 1027.2F CAPERS NEARSHORE 1808 53 54 40/ 14/ 17 1026.8F FRIPP NEARSHORE 1908 57 56 50/ 8/ 10 1025.9F STATION/POSITION TIME TEMP WIND PRES WAVE SWELL AIR SEA DIR/SP/G HT/PER HT/PER/DIR (UTC) (F) (DEG/KT/KT) (MB) (FT/S) (FT/S/D) 5E ST. MARYS GA 1900 62 N/A 2/ 9 2/100/13 FRYING PAN BUOY 1900 65 71 40/ 14/ 17 1026.8 BUOY 41025 1850 54 74 10/ 17/ 19 1027.6F 4/ 8 3/ 90/ 8 CAPE LOOKOUT NC 1900 52 10/ 12/ 14 1027.9F BUOY 41002 1850 69 72 110/ 6/ 8 1026.1F 4/ 8 3/ 30/ 8 BUOY 41010 NOT AVBL ST AUGUSTINE FL 1900 67 65 70/ 8/ 9 1025.5F $$

USA.gov is the U.S. government's official web portal to all federal, state and local government web resources and services.